Weather History for Pompano Beach, FL

Change the Weather History Date:

Tuesday, September 17, 2013

  Actual Average Record
Temperature  
Mean Temperature 81 °F -  
Max Temperature 86 °F 91 °F 96 °F (1973)
Min Temperature 78 °F 74 °F 68 °F (1961)
Cooling Degree Days 16    
Growing Degree Days 31 (Base 50)    
Moisture  
Dew Point 74 °F    
Average Humidity 78    
Maximum Humidity 88    
Minimum Humidity 69    
Precipitation  
Precipitation 0.04 in - - ()
Sea Level Pressure  
Sea Level Pressure 29.98 in    
Wind  
Wind Speed 10 mph (ENE)    
Max Wind Speed 15 mph    
Max Gust Speed 21 mph    
Visibility 10 miles    
Events Rain    
Averages and records for this station are not official NWS values.
T = Trace of Precipitation, MM = Missing Value Source: NWS Daily Summary

Daily Weather History Graph

Daily Weather History Graph

Search for Another Location

Airport:

Trip Planner

Search our weather history database for the weather conditions in past years. The results will help you decide how hot, cold, wet, or windy it might be!

Date:

Astronomy

Sep. 17, 2013 Rise Set
Actual Time 7:07 AM EDT 7:22 PM EDT
Civil Twilight 6:43 AM EDT 7:45 PM EDT
Nautical Twilight 6:16 AM EDT 8:12 PM EDT
Astronomical Twilight 5:49 AM EDT 8:39 PM EDT
Moon 6:03 PM EDT (9/17) 5:08 AM EDT (9/17)
Length of Visible Light 13h 01m
Length of Day
12h 15m
Waxing Gibbous, 96% of the Moon is Illuminated
Sep 17
Waxing Gibbous
Sep 19
Full
Sep 26
Last Quarter
Oct 4
New
Oct 11
First Quarter

Hourly Weather History & Observations

Time (EDT) Temp. Heat Index Dew Point Humidity Pressure Visibility Wind Dir Wind Speed Gust Speed Precip Events Conditions
12:53 AM 81.0 °F 86.2 °F 73.9 °F 79% 29.99 in 10.0 mi East 15.0 mph 20.7 mph N/A   Unknown
1:53 AM 81.0 °F 86.2 °F 73.9 °F 79% 29.97 in 10.0 mi East 13.8 mph - N/A   Unknown
2:53 AM 81.0 °F 86.7 °F 75.0 °F 82% 29.97 in 10.0 mi ESE 11.5 mph - N/A   Unknown
3:53 AM 82.0 °F 87.9 °F 73.9 °F 76% 29.95 in 10.0 mi East 9.2 mph - N/A   Unknown
4:53 AM 82.0 °F 87.9 °F 73.9 °F 76% 29.95 in 10.0 mi ESE 10.4 mph - N/A   Unknown
5:53 AM 82.0 °F 88.6 °F 75.0 °F 79% 29.95 in 10.0 mi East 6.9 mph - N/A   Unknown
6:53 AM 81.0 °F 86.7 °F 75.0 °F 82% 29.97 in 10.0 mi East 4.6 mph - N/A   Unknown
7:53 AM 82.0 °F 88.6 °F 75.0 °F 79% 29.98 in 10.0 mi East 3.5 mph - N/A   Mostly Cloudy
8:53 AM 82.0 °F 86.7 °F 72.0 °F 71% 30.01 in 10.0 mi North 6.9 mph - N/A   Mostly Cloudy
9:53 AM 78.1 °F - 70.0 °F 76% 30.02 in 8.0 mi West 4.6 mph - N/A Rain Light Rain
10:53 AM 80.1 °F 84.5 °F 73.9 °F 81% 30.03 in 10.0 mi NNE 3.5 mph - 0.03 in   Mostly Cloudy
11:53 AM 84.9 °F 92.1 °F 73.9 °F 69% 30.04 in 10.0 mi Variable 5.8 mph - N/A   Mostly Cloudy
12:53 PM 84.0 °F 91.9 °F 75.0 °F 74% 30.02 in 10.0 mi North 11.5 mph - N/A   Mostly Cloudy
1:53 PM 81.0 °F 86.2 °F 73.9 °F 79% 30.00 in 10.0 mi NNE 11.5 mph - N/A   Mostly Cloudy
2:53 PM 80.1 °F 85.1 °F 75.0 °F 85% 29.99 in 10.0 mi NNE 10.4 mph - 0.00 in Rain Light Rain
3:53 PM 79.0 °F - 75.0 °F 88% 29.96 in 10.0 mi NE 13.8 mph - 0.01 in Rain Light Rain
4:53 PM 80.1 °F 84.2 °F 73.0 °F 79% 29.95 in 10.0 mi ENE 13.8 mph - 0.00 in   Clear
5:53 PM 80.1 °F 84.5 °F 73.9 °F 81% 29.95 in 10.0 mi NE 12.7 mph - N/A   Overcast
6:04 PM 80.6 °F 85.4 °F 73.4 °F 79% 29.94 in 10.0 mi NE 12.7 mph - N/A   Mostly Cloudy
6:53 PM 80.1 °F 84.5 °F 73.9 °F 81% 29.93 in 10.0 mi ENE 12.7 mph - 0.00 in   Scattered Clouds
7:53 PM 81.0 °F 85.2 °F 72.0 °F 74% 29.95 in 10.0 mi ENE 12.7 mph - N/A   Partly Cloudy
8:34 PM 80.6 °F 85.4 °F 73.4 °F 79% 29.96 in 10.0 mi ENE 10.4 mph - N/A   Mostly Cloudy
8:42 PM 80.6 °F 85.4 °F 73.4 °F 79% 29.96 in 10.0 mi ENE 12.7 mph - N/A   Scattered Clouds
8:53 PM 82.0 °F 87.4 °F 73.0 °F 74% 29.96 in 10.0 mi East 10.4 mph 18.4 mph N/A   Scattered Clouds
9:53 PM 82.0 °F 87.9 °F 73.9 °F 76% 29.98 in 10.0 mi East 8.1 mph - N/A   Unknown
10:50 PM 82.4 °F 88.2 °F 73.4 °F 74% 29.98 in 10.0 mi East 10.4 mph - N/A   Mostly Cloudy
10:53 PM 82.0 °F 87.9 °F 73.9 °F 76% 29.98 in 10.0 mi East 9.2 mph - N/A   Mostly Cloudy
11:26 PM 82.4 °F 88.2 °F 73.4 °F 74% 29.97 in 10.0 mi East 8.1 mph - N/A   Scattered Clouds
11:35 PM 82.4 °F 88.2 °F 73.4 °F 74% 29.97 in 10.0 mi East 8.1 mph - N/A   Mostly Cloudy
11:44 PM 82.4 °F 88.2 °F 73.4 °F 74% 29.97 in 10.0 mi East 8.1 mph - N/A   Scattered Clouds
11:53 PM 82.0 °F 87.4 °F 73.0 °F 74% 29.98 in 10.0 mi East 9.2 mph - N/A   Scattered Clouds